Wind_Speed
32 30 26 25 27 26 24 22 20 19 18 18 18 18 18 19 19 19 20 21 21 22 22 22 23 25 25 7 22 25 22 13 12 10 10 13 18 17 9 9 16 10 7 22 29 29 29
36 33 31 30 28 27 24 22 21 21 21 20 19 19 19 20 20 21 21 22 23 23 24 24 25 27 22 16 30 16 6 14 14 15 18 19 16 20 18 15 11 15 23 24 31 31 29
37 35 31 28 26 26 26 25 23 22 22 20 20 19 19 20 21 21 21 21 21 21 21 22 23 24 23 38 32 33 32 30 28 26 26 26 23 22 17 15 17 15 15 21 20 16 13
37 35 33 30 28 27 26 24 23 22 21 20 20 20 20 20 20 19 19 19 18 18 18 17 16 17 16 29 27 30 25 32 34 37 32 26 22 24 24 17 19 13 11 14 5 10 20
37 34 32 29 27 26 24 23 22 21 20 20 20 19 18 18 18 18 18 16 15 15 15 15 15 12 17 7 16 11 7 12 9 15 21 23 22 27 17 9 9 9 10 13 16 14 16
32 30 28 26 24 22 20 19 19 18 17 15 15 15 13 13 14 15 16 16 15 18 17 14 16 10 21 19 9 11 8 12 8 11 12 16 13 5 4 5 11 8 10 13 18 16 13
27 26 25 24 23 21 20 18 17 15 14 12 12 9 7 6 7 8 9 7 6 6 12 13 14 17 12 11 12 7 8 13 14 18 8 16 10 16 16 16 20 19 18 22 19 17 16
21 23 24 24 23 22 21 19 17 16 13 12 11 8 5 4 5 6 7 3 0 12 14 23 34 41 42 38 23 29 18 13 14 15 11 11 24 19 17 19 23 23 24 25 22 17 14
32 32 27 29 27 25 22 20 18 15 14 12 11 8 4 2 3 7 4 8 7 12 8 19 34 36 39 33 39 42 32 29 17 18 17 19 22 17 20 21 23 21 23 20 20 15 18
28 29 30 28 25 23 22 20 19 17 15 14 12 9 6 2 2 4 3 8 5 8 4 8 8 13 26 20 12 33 44 29 17 24 17 20 16 19 19 26 16 21 18 21 21 16 17
27 28 26 23 23 21 20 20 19 18 16 15 13 11 8 5 6 7 2 5 1 1 4 7 5 9 4 21 5 6 28 31 30 27 10 32 16 16 21 23 15 24 14 20 20 4 6
27 26 26 25 23 21 20 19 19 17 16 16 15 13 12 11 8 7 4 5 2 3 10 7 2 7 7 25 12 5 8 31 24 23 17 30 20 15 27 22 20 19 20 9 6 3 8
28 27 25 24 23 21 20 18 17 16 16 15 15 15 16 13 12 4 3 3 1 6 5 6 9 8 9 12 17 16 12 10 15 10 20 25 34 28 26 21 24 21 13 5 4 7 12
29 25 24 23 23 22 22 21 20 19 18 16 15 16 17 18 13 11 5 2 9 11 20 16 21 23 16 16 16 14 17 16 18 20 10 17 18 28 17 29 22 10 18 10 14 8 14
21 20 21 21 20 20 20 20 19 19 18 17 18 19 23 22 18 16 6 7 5 8 8 3 15 12 15 13 14 13 19 14 15 14 17 10 26 19 12 20 21 31 17 22 14 21 12
16 18 22 22 19 18 19 20 19 18 18 15 15 17 28 22 18 19 8 18 7 10 16 15 3 6 11 13 10 11 8 7 12 15 10 3 5 17 18 17 15 14 5 11 13 13 14
15 16 17 17 17 19 21 21 20 20 18 16 15 6 12 8 17 15 8 8 14 25 19 5 7 5 6 9 9 11 3 7 12 12 8 8 5 6 6 5 9 8 9 3 6 6 6
19 21 21 21 21 20 20 19 20 20 19 17 14 3 5 12 11 4 11 8 13 17 14 3 5 16 14 5 9 6 5 12 13 8 8 2 4 4 3 13 4 1 1 3 3 6 1
21 23 24 23 22 21 22 20 21 22 23 24 11 11 6 15 5 11 6 10 13 17 14 6 5 4 1 1 3 7 7 9 17 14 4 7 4 4 7 1 10 5 4 7 3 3 4
26 27 24 24 23 24 24 22 22 23 25 24 9 3 11 13 16 8 10 12 17 23 20 16 5 2 3 1 6 5 10 5 11 6 10 8 5 4 3 6 4 5 11 9 3 2 5
29 29 31 30 26 25 22 24 23 23 22 30 17 5 7 4 8 11 10 7 13 12 6 4 8 12 5 4 1 2 6 7 7 10 4 5 5 8 13 17 12 12 16 9 8 9 8
32 33 32 32 31 30 28 24 26 24 27 30 8 4 10 3 11 13 15 16 18 12 4 4 4 2 5 2 2 2 3 1 4 3 6 5 5 5 5 13 13 16 13 13 13 12 16
34 35 35 37 34 33 32 30 24 28 31 21 12 7 1 6 5 5 4 8 6 2 2 7 4 4 4 1 9 10 13 14 14 11 7 2 4 6 7 5 8 6 13 12 11 13 8
37 38 40 39 39 36 36 34 32 31 34 25 20 10 4 4 5 5 5 9 9 10 5 3 7 4 5 2 4 10 16 19 19 19 17 10 11 10 10 8 8 8 8 11 10 12 10
37 40 41 42 41 41 39 40 37 34 31 29 21 16 8 3 6 6 7 3 5 7 7 8 8 6 6 4 3 5 3 7 12 18 19 20 14 6 4 4 8 12 8 3 11 14 11
30 41 42 43 43 42 41 40 41 34 32 30 29 20 11 3 4 9 8 8 3 1 1 5 11 7 4 3 3 3 3 4 5 5 4 19 18 11 2 4 6 1 6 8 9 7 13
34 34 42 42 44 43 42 41 38 39 35 30 31 24 17 4 7 6 2 3 5 3 1 5 4 4 6 3 2 3 5 6 6 6 4 2 3 12 10 8 6 7 14 17 5 5 16
34 33 40 40 42 44 42 41 39 38 37 33 30 27 23 6 10 5 4 5 5 7 3 4 5 2 2 1 3 4 3 4 5 11 12 6 2 3 3 5 6 20 20 8 9 23 18
33 32 37 38 41 43 42 39 41 38 36 35 30 28 19 13 4 6 13 14 12 6 2 5 6 5 6 2 2 1 2 3 3 3 7 4 3 3 2 3 3 10 15 12 14 18 16
Wind_Direction
230 229 229 226 235 243 241 244 248 250 253 257 260 264 266 271 275 278 281 284 287 290 292 295 297 301 306 278 261 290 291 308 306 293 304 289 276 289 265 275 298 290 291 309 306 304 302
233 233 233 236 242 244 242 241 244 253 259 258 261 265 269 273 277 281 285 289 291 290 293 294 294 294 295 267 291 284 248 263 270 271 276 278 284 297 300 275 281 301 295 291 292 289 289
230 230 230 230 231 237 244 243 245 248 252 257 260 264 269 275 279 282 284 285 286 289 290 293 293 294 278 259 280 284 273 266 261 252 263 255 269 280 284 305 295 296 309 301 278 280 291
227 226 227 229 231 237 241 244 244 247 249 254 261 264 268 274 278 280 282 283 285 288 290 292 293 290 266 291 295 278 278 266 254 257 260 267 266 266 265 271 298 300 290 274 232 263 265
223 224 225 227 230 235 240 244 244 245 250 255 261 263 267 272 277 278 279 283 290 290 292 294 288 295 278 300 270 297 271 275 295 253 251 254 251 247 247 252 272 233 263 257 284 245 259
220 222 224 226 226 230 235 238 240 242 247 250 256 265 270 277 281 285 287 287 286 283 280 275 264 281 252 256 283 285 277 276 271 269 245 214 228 221 211 197 230 219 239 251 262 271 272
214 219 222 224 225 227 229 236 236 233 235 242 250 255 267 288 297 309 314 322 323 291 233 214 212 214 258 274 260 250 258 253 240 246 236 238 225 223 212 216 235 246 260 268 272 279 288
222 226 228 229 230 229 236 236 233 231 230 234 236 238 266 297 323 329 324 282 122 322 288 261 263 257 258 262 273 250 228 280 231 239 243 245 251 230 226 233 237 235 244 255 267 259 248
225 221 231 235 233 231 231 231 224 217 218 220 223 236 245 255 357 348 335 333 260 327 283 273 249 247 244 238 245 245 242 247 245 250 221 231 244 225 240 247 252 261 258 269 271 277 267
215 216 217 219 221 227 223 221 224 218 216 216 219 219 204 183 293 83 356 5 284 293 288 273 216 253 229 224 267 251 232 224 234 242 236 251 260 248 253 255 248 255 255 265 269 279 274
213 214 221 223 216 216 222 226 227 227 220 217 215 210 209 200 166 145 64 18 272 90 332 269 225 218 162 177 272 231 227 210 233 231 197 241 234 236 251 249 247 259 280 268 268 197 13
214 215 217 220 219 220 223 218 218 223 221 215 214 215 214 213 207 203 284 359 59 89 243 279 273 175 159 201 231 263 186 207 233 234 241 256 255 243 249 263 265 271 279 294 299 153 237
211 209 211 215 218 218 217 214 213 216 220 225 226 223 224 213 218 161 273 258 188 203 234 241 239 250 214 215 224 232 258 201 203 207 232 244 253 253 251 263 265 261 265 259 237 211 244
204 202 207 212 213 217 222 223 223 224 221 217 223 226 231 232 231 208 278 138 233 233 239 303 311 317 304 301 269 236 224 241 206 222 230 230 258 239 219 219 238 237 236 234 251 242 254
188 193 202 208 213 215 222 226 224 223 221 218 220 228 236 234 229 222 204 225 223 222 279 255 332 301 284 260 272 292 268 233 278 258 248 274 249 264 254 223 218 244 235 244 257 262 269
196 206 213 214 218 226 226 223 224 220 218 210 212 233 249 247 241 219 211 231 251 248 278 320 278 310 310 318 336 341 341 34 259 250 39 255 263 274 280 291 287 265 261 242 232 243 246
215 218 224 222 224 230 233 227 222 221 216 199 210 233 257 238 205 214 222 223 230 249 264 284 277 263 300 328 322 341 299 35 20 352 348 3 278 288 9 227 274 247 277 317 259 208 212
224 223 226 233 232 229 227 222 215 218 206 204 196 209 294 173 194 231 229 192 236 259 252 272 273 255 252 288 300 292 264 326 5 4 347 58 279 295 250 296 282 144 150 289 252 253 213
234 231 227 229 231 226 224 220 214 211 209 197 192 215 228 199 215 229 255 238 243 259 248 162 223 236 6 264 276 315 352 18 11 3 34 17 314 334 309 114 25 36 353 340 278 244 184
238 234 231 227 222 222 222 217 212 209 208 206 183 190 215 218 235 230 245 258 257 246 241 234 191 245 246 223 202 271 289 313 345 272 277 277 223 240 244 313 305 300 314 317 40 279 8
240 237 230 229 229 224 222 216 210 208 202 202 195 210 181 198 220 236 229 259 290 232 186 44 178 223 258 216 290 280 2 347 326 12 352 332 256 233 232 264 272 286 301 311 301 265 267
241 236 236 231 226 224 221 218 211 205 210 199 173 167 196 180 214 206 221 231 240 265 216 167 140 292 71 118 99 332 349 245 248 334 353 351 320 330 301 259 263 250 256 276 271 273 262
245 239 233 231 229 222 221 217 208 206 209 202 181 191 148 227 208 187 214 216 214 228 140 229 191 195 228 252 182 212 231 247 254 277 279 284 287 320 269 312 298 252 237 231 250 249 252
242 236 231 228 226 221 218 216 211 210 212 206 209 196 173 259 209 191 233 197 199 226 197 217 213 148 150 149 315 274 262 267 259 257 239 228 231 260 284 296 247 249 239 239 251 266 228
241 234 230 225 223 220 216 213 211 210 213 215 210 200 192 270 202 229 189 171 198 181 183 222 248 235 188 163 14 326 298 278 249 243 236 217 226 240 234 241 277 283 277 234 271 275 242
243 230 225 222 220 219 215 213 210 208 208 209 208 206 212 284 212 195 171 200 206 239 259 222 251 267 227 80 85 207 242 314 282 288 318 217 221 219 210 219 246 111 340 48 3 273 13
238 230 222 218 215 215 216 209 211 209 206 205 211 204 210 226 271 153 137 180 165 112 221 232 176 75 170 125 190 214 250 259 274 284 299 305 264 221 233 242 286 0 347 298 189 311 345
229 226 215 215 210 209 211 208 203 204 205 205 212 206 208 213 250 163 242 263 195 175 173 140 75 11 75 195 170 231 222 253 276 269 282 280 285 213 236 216 265 360 349 352 328 323 337
216 214 209 208 204 202 206 206 197 202 201 200 209 205 210 232 238 222 235 234 247 276 172 158 156 157 166 118 243 263 263 227 258 271 302 286 353 302 284 265 304 321 294 313 286 303 329
Height
1484 1487 1489 1492 1495 1497 1499 1501 1503 1504 1505 1506 1507 1508 1508 1509 1509 1509 1509 1509 1508 1508 1509 1507 1505 1503 1503 1504 1499 1498 1497 1498 1497 1498 1497 1498 1499 1493 1492 1488 1485 1482 1477 1473 1471 1470 1466
1478 1481 1484 1487 1489 1493 1495 1496 1497 1500 1502 1502 1502 1503 1504 1505 1505 1505 1505 1505 1504 1504 1504 1503 1502 1500 1499 1497 1491 1492 1492 1493 1495 1495 1495 1496 1494 1492 1488 1484 1484 1479 1474 1470 1468 1464 1461
1472 1473 1477 1480 1483 1488 1490 1491 1492 1493 1496 1498 1498 1498 1500 1502 1501 1501 1501 1500 1500 1501 1500 1498 1499 1495 1492 1482 1487 1488 1487 1487 1488 1489 1488 1488 1490 1492 1489 1485 1478 1476 1476 1467 1464 1461 1460
1465 1467 1470 1473 1476 1481 1485 1486 1486 1489 1490 1492 1494 1494 1495 1497 1497 1497 1497 1497 1496 1496 1496 1494 1495 1493 1481 1478 1479 1475 1475 1474 1476 1480 1482 1484 1487 1486 1485 1484 1481 1481 1476 1471 1456 1456 1453
1456 1461 1464 1468 1471 1475 1479 1481 1481 1484 1485 1486 1490 1491 1490 1491 1493 1494 1494 1493 1494 1492 1491 1492 1492 1492 1478 1473 1471 1469 1469 1468 1470 1473 1476 1478 1481 1479 1483 1484 1486 1481 1478 1468 1456 1450 1448
1449 1454 1458 1463 1466 1470 1473 1476 1477 1478 1481 1483 1486 1488 1487 1487 1489 1490 1490 1490 1491 1489 1488 1488 1489 1493 1475 1467 1467 1465 1466 1469 1469 1470 1473 1474 1473 1474 1475 1483 1484 1476 1473 1464 1454 1447 1445
1442 1447 1453 1458 1462 1465 1469 1472 1473 1474 1476 1478 1482 1484 1485 1485 1487 1488 1490 1489 1490 1487 1484 1478 1473 1466 1461 1464 1462 1461 1465 1469 1468 1470 1471 1469 1472 1467 1467 1465 1461 1460 1461 1453 1442 1438 1441
1438 1442 1449 1453 1460 1462 1467 1467 1468 1472 1472 1475 1480 1481 1481 1483 1487 1487 1488 1489 1490 1490 1476 1471 1468 1460 1458 1462 1457 1456 1461 1464 1463 1464 1468 1471 1457 1454 1456 1456 1452 1450 1453 1445 1433 1431 1434
1431 1437 1446 1451 1454 1457 1461 1465 1466 1466 1468 1472 1477 1479 1479 1481 1484 1487 1488 1487 1486 1487 1482 1455 1452 1444 1449 1455 1443 1439 1454 1453 1455 1456 1459 1462 1433 1445 1449 1445 1445 1443 1438 1436 1435 1428 1423
1424 1430 1438 1444 1448 1453 1456 1459 1463 1463 1465 1468 1471 1476 1478 1481 1485 1484 1488 1487 1487 1486 1487 1447 1439 1429 1435 1442 1438 1431 1437 1447 1447 1447 1453 1445 1440 1442 1441 1433 1439 1442 1430 1430 1427 1433 1438
1421 1427 1435 1440 1441 1447 1452 1456 1459 1462 1462 1465 1468 1472 1475 1478 1481 1484 1486 1486 1487 1486 1511 1436 1426 1425 1426 1436 1427 1420 1422 1439 1433 1435 1448 1419 1430 1440 1433 1425 1431 1426 1426 1428 1424 1435 1445
1415 1421 1428 1436 1439 1444 1449 1450 1453 1459 1462 1463 1464 1467 1472 1476 1479 1483 1484 1485 1488 1494 1486 1438 1424 1422 1425 1430 1424 1421 1423 1428 1429 1438 1441 1422 1431 1430 1420 1424 1422 1420 1423 1424 1426 1434 1441
1410 1416 1423 1430 1435 1440 1446 1448 1449 1454 1458 1462 1464 1465 1468 1471 1477 1481 1482 1486 1494 1481 1442 1430 1425 1422 1422 1421 1420 1421 1422 1424 1432 1439 1435 1428 1415 1420 1419 1426 1417 1421 1430 1446 1442 1433 1423
1406 1411 1420 1426 1430 1434 1441 1444 1445 1450 1454 1456 1462 1464 1466 1469 1473 1478 1482 1488 1478 1453 1442 1423 1428 1431 1432 1428 1417 1412 1416 1419 1416 1420 1421 1428 1426 1399 1401 1406 1405 1414 1416 1431 1422 1426 1413
1400 1406 1414 1420 1426 1428 1435 1440 1443 1446 1449 1453 1455 1461 1461 1465 1469 1475 1482 1477 1464 1453 1444 1441 1445 1432 1427 1422 1421 1417 1409 1410 1411 1411 1420 1420 1407 1384 1388 1393 1399 1394 1415 1391 1415 1408 1417
1399 1404 1410 1416 1420 1424 1431 1434 1439 1442 1447 1451 1452 1453 1454 1463 1468 1471 1472 1464 1458 1450 1449 1446 1454 1446 1438 1430 1426 1421 1419 1417 1415 1411 1421 1422 1418 1398 1395 1394 1392 1391 1388 1407 1406 1417 1411
1396 1400 1407 1411 1415 1420 1427 1429 1433 1437 1446 1447 1450 1452 1447 1455 1462 1464 1453 1454 1449 1447 1452 1452 1454 1448 1444 1444 1436 1432 1426 1427 1425 1421 1419 1426 1420 1400 1395 1391 1389 1390 1395 1396 1402 1403 1400
1392 1397 1402 1407 1413 1413 1420 1424 1425 1433 1440 1445 1447 1450 1446 1449 1454 1455 1446 1445 1445 1443 1447 1449 1452 1449 1448 1446 1444 1438 1438 1429 1429 1430 1430 1431 1427 1413 1403 1394 1390 1393 1399 1404 1402 1399 1387
1387 1393 1395 1402 1408 1408 1413 1418 1423 1425 1434 1438 1441 1442 1445 1448 1443 1444 1450 1442 1441 1442 1440 1449 1448 1447 1443 1444 1446 1439 1438 1435 1435 1434 1438 1436 1428 1421 1400 1391 1400 1408 1411 1414 1411 1412 1392
1382 1388 1389 1396 1399 1403 1409 1412 1416 1422 1425 1434 1437 1437 1441 1441 1443 1442 1444 1446 1436 1435 1433 1437 1443 1447 1447 1444 1443 1445 1439 1434 1433 1439 1443 1443 1428 1424 1424 1415 1417 1416 1409 1406 1404 1408 1403
1376 1379 1383 1388 1392 1397 1402 1406 1413 1416 1420 1428 1430 1427 1433 1436 1434 1439 1444 1443 1435 1430 1422 1433 1439 1441 1437 1439 1437 1436 1436 1438 1437 1437 1439 1437 1425 1415 1412 1407 1408 1413 1405 1403 1401 1405 1408
1366 1369 1374 1379 1385 1389 1394 1403 1407 1409 1419 1420 1425 1421 1428 1427 1425 1433 1437 1431 1430 1431 1428 1430 1435 1443 1436 1440 1441 1445 1445 1443 1442 1438 1441 1439 1427 1428 1428 1409 1405 1410 1398 1399 1396 1393 1391
1353 1358 1364 1372 1376 1378 1389 1396 1398 1405 1409 1416 1417 1418 1422 1420 1422 1425 1426 1423 1423 1424 1430 1429 1430 1435 1435 1436 1437 1439 1441 1441 1439 1435 1436 1439 1438 1429 1417 1405 1410 1417 1398 1392 1384 1381 1381
1342 1347 1353 1359 1365 1372 1380 1386 1396 1398 1405 1409 1413 1417 1421 1421 1419 1418 1418 1418 1421 1426 1430 1428 1429 1431 1433 1433 1434 1434 1433 1431 1428 1423 1425 1429 1432 1431 1418 1412 1418 1384 1373 1372 1371 1369 1370
1328 1334 1340 1348 1356 1364 1372 1380 1387 1393 1399 1403 1410 1415 1417 1416 1412 1415 1415 1417 1418 1421 1424 1425 1425 1428 1429 1431 1438 1439 1437 1427 1414 1408 1409 1412 1416 1419 1423 1415 1396 1373 1365 1370 1369 1365 1356
1314 1320 1328 1336 1345 1353 1363 1371 1380 1387 1394 1401 1406 1412 1416 1415 1412 1413 1415 1416 1420 1421 1422 1422 1424 1425 1427 1431 1441 1451 1443 1425 1418 1400 1395 1398 1404 1412 1417 1409 1402 1369 1362 1364 1361 1369 1357
1302 1308 1316 1325 1334 1344 1353 1363 1372 1381 1389 1396 1402 1409 1413 1414 1409 1408 1413 1415 1417 1419 1423 1420 1421 1425 1426 1437 1449 1451 1435 1422 1420 1406 1400 1401 1397 1397 1400 1397 1383 1370 1370 1364 1378 1379 1359
1289 1296 1305 1315 1325 1336 1346 1355 1366 1375 1384 1392 1398 1405 1408 1410 1408 1409 1411 1413 1415 1417 1422 1420 1425 1427 1430 1435 1441 1440 1438 1426 1417 1408 1403 1400 1401 1404 1397 1393 1386 1382 1377 1383 1380 1367 1365
1278 1287 1296 1307 1317 1329 1340 1349 1360 1370 1379 1389 1395 1400 1406 1408 1410 1409 1409 1412 1414 1414 1415 1417 1420 1422 1424 1429 1431 1427 1425 1423 1418 1419 1399 1402 1401 1400 1392 1387 1378 1380 1386 1378 1374 1370 1363